Weather Roundup
Issued by NWS Springfield, MO

Home | Current Version | Previous Version | Text Only | Print | Product List | Glossary On
Versions: 1 2 3 4 5 6 7 8 9 10 11 12 13 14 15 16 17 18 19 20 21 22 23 24 25 26 27 28 29 30 31 32 33 34 35 36 37 38 39 40 41 42 43 44 45 46 47 48 49 50
000
NZUS99 KSGF 040207
HRRSGF

HOURLY WEATHER
NATIONAL WEATHER SERVICE SPRINGFIELD MO
900 PM CDT SUN MAY 03 2015

......SGF CWA......

CITY           SKY/WX    TMP DP  RH WIND       PRES   REMARKS
SPRINGFIELD    CLOUDY    69  55  60 S8        29.96R
JOPLIN         MOCLDY    69  57  65 S7        29.95R
WEST PLAINS    PTCLDY    70  53  54 S7        30.02R
ROLLA          PTCLDY    70  53  54 S7        29.95R
OSAGE BEACH    MOCLDY    73  54  49 S6        29.94S
BRANSON        MOCLDY    72  55  56 S6        30.00R

......SURROUNDING SGF CWA......

CITY           SKY/WX    TMP DP  RH WIND       PRES   REMARKS
CHANUTE        PTCLDY    70  58  65 S12       29.89R
PARSONS        PTCLDY    72  57  59 S7        29.91R
COFFEYVILLE    PTCLDY    71  56  58 S8        29.90R
EMPORIA        CLEAR     71  56  58 S13       29.86R
GROVE OK       MOCLDY    72  55  56 S5        29.96R
ROGERS AR      MOCLDY    71  55  56 S9        29.99R
SILOAM SPRINGS MOCLDY    70  52  52 S7        29.99S
HARRISON AR    CLEAR     67  56  67 S6        30.01R
NEAR YELLVILLE PTCLDY    72  55  56 SE3       29.98S

......KANSAS AND MISSOURI......

CITY           SKY/WX    TMP DP  RH WIND       PRES   REMARKS
KANSAS CTY INT MOCLDY    74  58  57 S15G24    29.85R
DOWNTOWN KC    PTCLDY    76  58  53 S14       29.85R
COLUMBIA       PTCLDY    70  56  61 S7        29.92R
SEDALIA        PTCLDY    70  56  61 S10       29.92R
ST JOSEPH      MOCLDY    76  59  55 S10       29.81R
ST LOUIS       LGT RAIN  78  50  37 S8        29.97R
SPIRIT OF STL  CLOUDY    74  51  44 S7        29.94R
KIRKSVILLE     CLEAR     74  58  57 S12       29.87S
WICHITA        MOCLDY    73  57  57 S15       29.85R
TOPEKA         PTCLDY    77  57  50 S10       29.83R
OLATHE         PTCLDY    73  58  59 S13       29.87R

......TENNESSEE......

CITY           SKY/WX    TMP DP  RH WIND       PRES   REMARKS
MEMPHIS        PTCLDY    75  50  41 SE5       30.06R
NASHVILLE      PTCLDY    67  51  56 S5        30.11R

......ARKANSAS.......

CITY           SKY/WX    TMP DP  RH WIND       PRES   REMARKS
FAYETTEVILLE   PTCLDY    69  57  65 CALM      29.99R
FT SMITH       CLEAR     73  54  51 S5        29.98R
LITTLE ROCK    MOCLDY    73  55  53 S8        30.02R

......OKLAHOMA.......

CITY           SKY/WX    TMP DP  RH WIND       PRES   REMARKS
TULSA          PTCLDY    75  57  53 S12       29.91R
PONCA CITY     PTCLDY    73  55  53 VRB7      29.89R
MCALESTER      CLEAR     71  53  52 S6        29.96R
OKLAHOMA CITY  PTCLDY    69  53  56 S12       29.92R

......IOWA............

CITY           SKY/WX    TMP DP  RH WIND       PRES   REMARKS
DES MOINES     CLOUDY    75  58  55 S5        29.78R
QUAD CITIES    CLEAR     76  54  46 SW10      29.84R

......ILLINOIS........

CITY           SKY/WX    TMP DP  RH WIND       PRES   REMARKS
QUINCY         PTCLDY    75  52  44 S10       29.89S
CHICAGO        TSTM      62  58  86 SE10      29.93S




USA.gov is the U.S. government's official web portal to all federal, state and local government web resources and services.